QPF
0.00 0.00 0.00 0.00 0.01 0.00 0.00 0.00 0.00 0.00 0.00 0.00 0.00 0.00 0.00 0.00 0.00 0.00 0.00 0.00 0.00 0.00 0.01 0.01 0.01 0.02 0.02 0.02 0.01 0.01 0.02 0.02 0.02 0.02 0.02 0.02 0.02 0.02 0.02 0.03 0.03 0.04 0.06 0.06 0.03 0.01 0.01 0.01 0.01
0.00 0.00 0.00 0.00 0.00 0.00 0.00 0.00 0.00 0.00 0.00 0.00 0.00 0.00 0.00 0.00 0.00 0.00 0.00 0.00 0.00 0.00 0.00 0.01 0.01 0.02 0.01 0.01 0.01 0.01 0.01 0.02 0.02 0.03 0.02 0.02 0.02 0.02 0.02 0.02 0.02 0.03 0.04 0.04 0.03 0.02 0.01 0.01 0.01
0.00 0.00 0.00 0.00 0.00 0.00 0.00 0.00 0.00 0.00 0.00 0.00 0.00 0.00 0.00 0.00 0.00 0.00 0.00 0.00 0.00 0.00 0.00 0.01 0.01 0.02 0.02 0.02 0.01 0.01 0.01 0.01 0.02 0.03 0.03 0.02 0.02 0.02 0.02 0.02 0.02 0.03 0.04 0.04 0.03 0.02 0.01 0.01 0.01
0.01 0.01 0.00 0.00 0.00 0.00 0.00 0.00 0.00 0.00 0.00 0.00 0.00 0.00 0.00 0.00 0.00 0.00 0.00 0.01 0.00 0.00 0.00 0.01 0.01 0.02 0.02 0.02 0.01 0.01 0.01 0.01 0.01 0.02 0.04 0.03 0.02 0.02 0.02 0.02 0.02 0.03 0.03 0.04 0.04 0.03 0.01 0.01 0.01
0.01 0.01 0.01 0.00 0.00 0.00 0.00 0.00 0.00 0.00 0.00 0.00 0.00 0.00 0.00 0.00 0.00 0.00 0.00 0.00 0.00 0.00 0.00 0.00 0.01 0.02 0.02 0.02 0.02 0.02 0.02 0.02 0.01 0.01 0.03 0.03 0.03 0.03 0.02 0.02 0.03 0.03 0.04 0.04 0.05 0.04 0.02 0.01 0.01
0.01 0.01 0.01 0.01 0.00 0.00 0.00 0.00 0.00 0.00 0.00 0.00 0.00 0.00 0.00 0.00 0.00 0.00 0.00 0.00 0.00 0.01 0.01 0.01 0.01 0.01 0.02 0.02 0.01 0.02 0.02 0.02 0.01 0.01 0.02 0.03 0.03 0.02 0.02 0.01 0.02 0.03 0.04 0.05 0.05 0.03 0.02 0.02 0.02
0.02 0.02 0.01 0.01 0.00 0.00 0.00 0.00 0.00 0.00 0.00 0.00 0.00 0.00 0.00 0.00 0.00 0.01 0.01 0.01 0.00 0.00 0.01 0.01 0.01 0.01 0.01 0.02 0.02 0.02 0.02 0.02 0.01 0.01 0.02 0.03 0.03 0.02 0.01 0.01 0.01 0.03 0.04 0.04 0.05 0.04 0.03 0.02 0.01
0.03 0.03 0.02 0.01 0.00 0.00 0.00 0.00 0.00 0.00 0.00 0.00 0.00 0.00 0.00 0.00 0.00 0.01 0.01 0.01 0.00 0.00 0.00 0.00 0.01 0.01 0.01 0.01 0.02 0.02 0.03 0.03 0.02 0.01 0.02 0.03 0.04 0.02 0.01 0.01 0.01 0.02 0.03 0.04 0.04 0.04 0.04 0.03 0.02
0.04 0.05 0.03 0.01 0.00 0.00 0.00 0.00 0.00 0.00 0.00 0.00 0.00 0.00 0.00 0.00 0.01 0.01 0.01 0.01 0.00 0.00 0.00 0.01 0.01 0.02 0.02 0.02 0.02 0.02 0.03 0.03 0.03 0.02 0.02 0.03 0.04 0.03 0.02 0.01 0.01 0.02 0.02 0.03 0.04 0.03 0.04 0.03 0.03
0.03 0.06 0.04 0.01 0.00 0.00 0.00 0.00 0.00 0.00 0.00 0.00 0.00 0.00 0.00 0.00 0.01 0.01 0.01 0.01 0.01 0.01 0.00 0.01 0.01 0.01 0.01 0.02 0.03 0.03 0.04 0.04 0.03 0.03 0.03 0.04 0.03 0.03 0.02 0.01 0.01 0.02 0.02 0.03 0.04 0.05 0.05 0.03 0.03
0.01 0.03 0.03 0.01 0.01 0.01 0.00 0.00 0.00 0.00 0.00 0.00 0.00 0.00 0.00 0.01 0.01 0.01 0.01 0.01 0.01 0.01 0.01 0.00 0.00 0.00 0.01 0.01 0.01 0.02 0.02 0.03 0.03 0.03 0.03 0.04 0.04 0.03 0.02 0.01 0.01 0.02 0.03 0.03 0.03 0.03 0.03 0.03 0.03
0.01 0.01 0.01 0.01 0.01 0.01 0.01 0.00 0.00 0.00 0.00 0.00 0.00 0.00 0.01 0.01 0.01 0.00 0.01 0.01 0.01 0.01 0.01 0.01 0.00 0.00 0.00 0.00 0.01 0.01 0.01 0.01 0.01 0.01 0.02 0.03 0.03 0.03 0.03 0.02 0.02 0.01 0.02 0.03 0.03 0.03 0.02 0.02 0.02
0.00 0.00 0.00 0.00 0.01 0.02 0.01 0.01 0.00 0.00 0.00 0.00 0.00 0.01 0.01 0.00 0.00 0.00 0.01 0.01 0.01 0.01 0.01 0.01 0.01 0.00 0.00 0.00 0.01 0.01 0.01 0.01 0.01 0.01 0.02 0.02 0.03 0.03 0.02 0.02 0.02 0.02 0.02 0.02 0.03 0.03 0.03 0.02 0.02
0.00 0.00 0.01 0.00 0.01 0.02 0.02 0.01 0.00 0.00 0.00 0.00 0.00 0.01 0.01 0.01 0.01 0.01 0.01 0.01 0.01 0.02 0.02 0.01 0.01 0.00 0.00 0.00 0.00 0.01 0.01 0.01 0.01 0.01 0.02 0.02 0.02 0.02 0.01 0.01 0.01 0.01 0.01 0.02 0.02 0.03 0.03 0.03 0.02
0.00 0.00 0.00 0.00 0.00 0.01 0.02 0.02 0.01 0.00 0.01 0.01 0.01 0.01 0.02 0.02 0.02 0.01 0.01 0.01 0.01 0.02 0.02 0.02 0.01 0.01 0.01 0.00 0.00 0.00 0.01 0.01 0.01 0.02 0.02 0.02 0.01 0.01 0.01 0.01 0.01 0.00 0.01 0.01 0.02 0.02 0.03 0.03 0.02
0.01 0.01 0.00 0.00 0.00 0.00 0.01 0.02 0.00 0.00 0.00 0.01 0.00 0.01 0.01 0.02 0.02 0.02 0.02 0.02 0.01 0.02 0.02 0.03 0.02 0.02 0.01 0.01 0.00 0.00 0.01 0.01 0.01 0.02 0.03 0.02 0.01 0.01 0.01 0.01 0.01 0.00 0.00 0.01 0.01 0.02 0.03 0.03 0.03
0.02 0.01 0.00 0.00 0.00 0.00 0.01 0.01 0.00 0.00 0.00 0.00 0.00 0.00 0.00 0.01 0.02 0.02 0.02 0.02 0.02 0.02 0.02 0.02 0.03 0.02 0.02 0.01 0.01 0.00 0.01 0.02 0.02 0.02 0.03 0.03 0.02 0.01 0.01 0.01 0.02 0.01 0.01 0.01 0.01 0.01 0.03 0.04 0.04
0.02 0.01 0.00 0.00 0.00 0.00 0.00 0.00 0.00 0.00 0.00 0.00 0.00 0.00 0.00 0.00 0.01 0.02 0.03 0.02 0.02 0.03 0.02 0.02 0.02 0.03 0.03 0.03 0.02 0.02 0.01 0.02 0.04 0.03 0.03 0.03 0.02 0.01 0.01 0.01 0.02 0.02 0.01 0.01 0.01 0.01 0.02 0.03 0.04
0.02 0.01 0.00 0.00 0.00 0.00 0.00 0.00 0.00 0.00 0.00 0.00 0.00 0.00 0.00 0.00 0.00 0.02 0.03 0.03 0.03 0.03 0.03 0.03 0.03 0.02 0.03 0.03 0.02 0.02 0.03 0.04 0.04 0.03 0.03 0.03 0.03 0.02 0.01 0.01 0.01 0.02 0.02 0.02 0.02 0.02 0.02 0.03 0.04
0.03 0.02 0.01 0.01 0.00 0.00 0.00 0.00 0.00 0.00 0.00 0.00 0.00 0.00 0.00 0.00 0.00 0.01 0.03 0.04 0.05 0.03 0.05 0.07 0.04 0.02 0.03 0.03 0.02 0.03 0.04 0.04 0.05 0.04 0.03 0.03 0.04 0.03 0.02 0.02 0.02 0.01 0.01 0.02 0.02 0.02 0.02 0.03 0.04
0.03 0.03 0.02 0.02 0.01 0.01 0.01 0.01 0.01 0.01 0.01 0.00 0.00 0.00 0.00 0.00 0.00 0.00 0.01 0.02 0.06 0.06 0.05 0.06 0.04 0.04 0.03 0.03 0.03 0.03 0.05 0.07 0.07 0.06 0.05 0.04 0.03 0.03 0.03 0.03 0.04 0.03 0.02 0.01 0.01 0.01 0.02 0.02 0.04
0.02 0.01 0.01 0.02 0.02 0.02 0.02 0.02 0.01 0.01 0.01 0.01 0.01 0.00 0.01 0.01 0.00 0.00 0.00 0.01 0.03 0.07 0.06 0.04 0.03 0.03 0.04 0.04 0.03 0.03 0.05 0.08 0.09 0.08 0.07 0.04 0.03 0.04 0.03 0.04 0.05 0.06 0.04 0.02 0.02 0.02 0.02 0.02 0.03
0.02 0.01 0.01 0.02 0.02 0.02 0.01 0.01 0.01 0.01 0.01 0.01 0.01 0.00 0.01 0.01 0.01 0.00 0.01 0.01 0.01 0.04 0.06 0.07 0.04 0.02 0.03 0.03 0.03 0.04 0.04 0.07 0.10 0.11 0.10 0.07 0.05 0.05 0.04 0.04 0.05 0.07 0.07 0.05 0.03 0.02 0.02 0.02 0.03
0.01 0.01 0.01 0.02 0.03 0.02 0.01 0.01 0.00 0.00 0.01 0.01 0.01 0.01 0.01 0.01 0.01 0.01 0.01 0.01 0.01 0.02 0.03 0.04 0.05 0.03 0.02 0.03 0.03 0.04 0.04 0.05 0.06 0.09 0.10 0.10 0.08 0.06 0.05 0.05 0.05 0.06 0.05 0.05 0.04 0.04 0.03 0.02 0.02
0.01 0.02 0.03 0.02 0.03 0.02 0.01 0.00 0.00 0.00 0.00 0.01 0.01 0.01 0.01 0.01 0.01 0.02 0.02 0.01 0.01 0.01 0.02 0.02 0.02 0.02 0.02 0.02 0.03 0.03 0.04 0.04 0.04 0.05 0.08 0.09 0.06 0.05 0.06 0.04 0.04 0.05 0.03 0.03 0.03 0.03 0.03 0.03 0.03
0.01 0.02 0.02 0.02 0.02 0.01 0.01 0.01 0.00 0.00 0.00 0.01 0.01 0.02 0.01 0.01 0.01 0.02 0.01 0.01 0.01 0.01 0.01 0.01 0.01 0.01 0.02 0.02 0.02 0.02 0.02 0.03 0.03 0.03 0.04 0.05 0.05 0.04 0.04 0.04 0.03 0.04 0.03 0.03 0.03 0.02 0.02 0.02 0.03
0.01 0.01 0.01 0.02 0.02 0.02 0.01 0.01 0.00 0.00 0.00 0.01 0.01 0.01 0.01 0.01 0.01 0.01 0.01 0.01 0.01 0.01 0.01 0.01 0.01 0.01 0.01 0.01 0.02 0.03 0.02 0.02 0.02 0.02 0.02 0.02 0.02 0.03 0.03 0.03 0.03 0.03 0.02 0.03 0.03 0.03 0.03 0.02 0.02
0.00 0.01 0.02 0.03 0.02 0.02 0.01 0.01 0.01 0.00 0.01 0.01 0.01 0.01 0.01 0.01 0.01 0.01 0.01 0.01 0.01 0.01 0.01 0.00 0.01 0.01 0.01 0.01 0.01 0.02 0.04 0.03 0.02 0.02 0.02 0.02 0.02 0.02 0.02 0.02 0.02 0.02 0.02 0.01 0.02 0.02 0.03 0.03 0.03
0.00 0.01 0.01 0.02 0.02 0.02 0.01 0.01 0.01 0.01 0.01 0.01 0.01 0.01 0.01 0.01 0.01 0.01 0.01 0.01 0.01 0.01 0.01 0.01 0.01 0.01 0.01 0.01 0.01 0.01 0.03 0.05 0.04 0.02 0.02 0.02 0.02 0.02 0.02 0.02 0.01 0.01 0.01 0.02 0.02 0.02 0.02 0.02 0.03
0.00 0.00 0.00 0.01 0.01 0.01 0.01 0.01 0.01 0.00 0.01 0.01 0.01 0.01 0.01 0.01 0.02 0.01 0.01 0.01 0.01 0.01 0.01 0.01 0.01 0.01 0.01 0.02 0.02 0.01 0.01 0.03 0.04 0.04 0.03 0.03 0.03 0.03 0.03 0.02 0.01 0.01 0.01 0.01 0.02 0.03 0.03 0.03 0.03
MSLP
1011.51 1012.26 1013.02 1013.67 1014.13 1014.33 1014.26 1013.92 1013.40 1012.77 1012.15 1011.61 1011.23 1011.02 1010.95 1010.98 1011.07 1011.16 1011.24 1011.30 1011.37 1011.48 1011.67 1011.96 1012.34 1012.77 1013.20 1013.60 1013.93 1014.18 1014.36 1014.51 1014.67 1014.87 1015.14 1015.46 1015.81 1016.16 1016.47 1016.71 1016.88 1016.99 1017.06 1017.12 1017.21 1017.34 1017.50 1017.69 1017.88
1011.98 1012.80 1013.53 1014.09 1014.39 1014.37 1014.04 1013.45 1012.69 1011.89 1011.16 1010.58 1010.21 1010.04 1010.05 1010.18 1010.35 1010.52 1010.66 1010.79 1010.92 1011.10 1011.35 1011.71 1012.15 1012.64 1013.13 1013.57 1013.93 1014.20 1014.40 1014.57 1014.75 1014.97 1015.25 1015.58 1015.95 1016.31 1016.62 1016.86 1017.03 1017.13 1017.20 1017.26 1017.35 1017.48 1017.65 1017.85 1018.06
1012.47 1013.28 1013.94 1014.36 1014.46 1014.20 1013.63 1012.82 1011.89 1010.97 1010.19 1009.62 1009.31 1009.24 1009.35 1009.57 1009.82 1010.05 1010.24 1010.40 1010.57 1010.79 1011.10 1011.50 1012.00 1012.54 1013.08 1013.56 1013.95 1014.25 1014.47 1014.65 1014.83 1015.05 1015.33 1015.67 1016.03 1016.39 1016.70 1016.94 1017.11 1017.21 1017.29 1017.37 1017.47 1017.62 1017.81 1018.02 1018.25
1012.88 1013.63 1014.18 1014.42 1014.31 1013.85 1013.07 1012.10 1011.07 1010.11 1009.35 1008.86 1008.65 1008.69 1008.91 1009.23 1009.55 1009.83 1010.05 1010.22 1010.40 1010.64 1010.96 1011.40 1011.92 1012.50 1013.07 1013.57 1013.99 1014.30 1014.53 1014.71 1014.90 1015.12 1015.39 1015.72 1016.08 1016.42 1016.73 1016.97 1017.15 1017.27 1017.36 1017.46 1017.58 1017.75 1017.96 1018.20 1018.45
1013.12 1013.77 1014.18 1014.25 1013.96 1013.32 1012.41 1011.36 1010.30 1009.38 1008.71 1008.34 1008.27 1008.44 1008.78 1009.18 1009.57 1009.87 1010.09 1010.26 1010.43 1010.65 1010.97 1011.40 1011.93 1012.51 1013.08 1013.59 1014.01 1014.33 1014.56 1014.75 1014.94 1015.16 1015.43 1015.76 1016.11 1016.45 1016.75 1017.00 1017.18 1017.31 1017.42 1017.54 1017.69 1017.88 1018.11 1018.37 1018.63
1013.15 1013.68 1013.93 1013.85 1013.41 1012.67 1011.70 1010.64 1009.64 1008.82 1008.29 1008.07 1008.16 1008.47 1008.92 1009.39 1009.81 1010.13 1010.35 1010.50 1010.63 1010.82 1011.11 1011.51 1012.00 1012.55 1013.10 1013.59 1014.00 1014.31 1014.55 1014.75 1014.95 1015.18 1015.47 1015.80 1016.15 1016.49 1016.80 1017.04 1017.23 1017.37 1017.50 1017.63 1017.79 1017.99 1018.23 1018.50 1018.76
1012.97 1013.36 1013.47 1013.26 1012.73 1011.94 1010.98 1010.00 1009.11 1008.44 1008.07 1008.02 1008.25 1008.67 1009.20 1009.73 1010.17 1010.49 1010.69 1010.82 1010.92 1011.07 1011.32 1011.66 1012.11 1012.61 1013.11 1013.56 1013.94 1014.25 1014.49 1014.71 1014.94 1015.20 1015.51 1015.86 1016.22 1016.57 1016.87 1017.12 1017.30 1017.45 1017.57 1017.70 1017.86 1018.06 1018.30 1018.55 1018.81
1012.62 1012.87 1012.86 1012.56 1011.99 1011.21 1010.32 1009.45 1008.70 1008.20 1007.99 1008.08 1008.41 1008.92 1009.49 1010.04 1010.49 1010.80 1010.99 1011.10 1011.19 1011.31 1011.51 1011.81 1012.20 1012.63 1013.08 1013.49 1013.84 1014.14 1014.39 1014.64 1014.90 1015.21 1015.56 1015.94 1016.32 1016.67 1016.98 1017.22 1017.39 1017.52 1017.63 1017.75 1017.90 1018.08 1018.30 1018.54 1018.78
1012.16 1012.30 1012.19 1011.83 1011.26 1010.53 1009.75 1009.01 1008.42 1008.06 1007.98 1008.15 1008.55 1009.08 1009.65 1010.19 1010.63 1010.93 1011.12 1011.24 1011.33 1011.44 1011.63 1011.90 1012.23 1012.61 1013.00 1013.36 1013.69 1013.98 1014.26 1014.54 1014.85 1015.20 1015.60 1016.01 1016.41 1016.78 1017.08 1017.30 1017.46 1017.58 1017.67 1017.78 1017.90 1018.06 1018.26 1018.47 1018.69
1011.65 1011.69 1011.52 1011.15 1010.60 1009.96 1009.29 1008.68 1008.22 1007.98 1007.97 1008.18 1008.57 1009.07 1009.60 1010.10 1010.51 1010.81 1011.01 1011.15 1011.27 1011.42 1011.62 1011.87 1012.18 1012.52 1012.87 1013.19 1013.50 1013.79 1014.09 1014.40 1014.76 1015.16 1015.59 1016.03 1016.46 1016.82 1017.12 1017.34 1017.49 1017.60 1017.68 1017.77 1017.89 1018.03 1018.21 1018.40 1018.60
1011.12 1011.11 1010.90 1010.54 1010.05 1009.50 1008.94 1008.46 1008.10 1007.92 1007.93 1008.12 1008.46 1008.88 1009.33 1009.76 1010.13 1010.42 1010.65 1010.84 1011.02 1011.22 1011.45 1011.73 1012.03 1012.36 1012.67 1012.98 1013.27 1013.57 1013.88 1014.22 1014.61 1015.05 1015.51 1015.97 1016.40 1016.77 1017.07 1017.29 1017.44 1017.55 1017.64 1017.74 1017.86 1018.01 1018.19 1018.37 1018.55
1010.57 1010.53 1010.33 1010.01 1009.59 1009.14 1008.70 1008.31 1008.03 1007.88 1007.87 1008.00 1008.24 1008.55 1008.90 1009.24 1009.56 1009.85 1010.10 1010.34 1010.59 1010.86 1011.14 1011.46 1011.78 1012.11 1012.42 1012.71 1013.00 1013.30 1013.62 1013.98 1014.38 1014.83 1015.30 1015.77 1016.20 1016.58 1016.88 1017.11 1017.29 1017.42 1017.55 1017.69 1017.85 1018.02 1018.21 1018.39 1018.57
1009.96 1009.93 1009.77 1009.51 1009.19 1008.84 1008.50 1008.21 1007.98 1007.84 1007.80 1007.84 1007.97 1008.16 1008.40 1008.65 1008.92 1009.18 1009.46 1009.74 1010.05 1010.38 1010.72 1011.08 1011.43 1011.77 1012.09 1012.39 1012.68 1012.97 1013.30 1013.66 1014.06 1014.51 1014.97 1015.42 1015.85 1016.22 1016.54 1016.80 1017.02 1017.22 1017.41 1017.61 1017.83 1018.05 1018.27 1018.47 1018.65
1009.25 1009.26 1009.15 1008.98 1008.76 1008.53 1008.31 1008.10 1007.93 1007.80 1007.71 1007.69 1007.72 1007.80 1007.93 1008.10 1008.30 1008.54 1008.81 1009.12 1009.46 1009.83 1010.21 1010.60 1010.98 1011.33 1011.66 1011.98 1012.27 1012.58 1012.90 1013.26 1013.65 1014.06 1014.50 1014.93 1015.34 1015.72 1016.06 1016.37 1016.65 1016.93 1017.21 1017.50 1017.79 1018.08 1018.34 1018.57 1018.74
1008.40 1008.45 1008.43 1008.36 1008.27 1008.16 1008.05 1007.94 1007.82 1007.72 1007.62 1007.55 1007.50 1007.50 1007.55 1007.64 1007.79 1007.98 1008.23 1008.53 1008.86 1009.23 1009.62 1010.02 1010.41 1010.78 1011.14 1011.47 1011.79 1012.11 1012.43 1012.78 1013.15 1013.54 1013.94 1014.34 1014.74 1015.12 1015.48 1015.84 1016.20 1016.56 1016.94 1017.32 1017.70 1018.06 1018.38 1018.63 1018.81
1007.40 1007.53 1007.59 1007.64 1007.67 1007.69 1007.70 1007.68 1007.63 1007.56 1007.47 1007.38 1007.30 1007.25 1007.24 1007.28 1007.37 1007.52 1007.72 1007.96 1008.26 1008.59 1008.95 1009.33 1009.72 1010.11 1010.49 1010.86 1011.22 1011.56 1011.90 1012.25 1012.60 1012.96 1013.33 1013.70 1014.08 1014.47 1014.86 1015.26 1015.69 1016.14 1016.61 1017.08 1017.54 1017.97 1018.33 1018.60 1018.78
1006.32 1006.51 1006.67 1006.83 1006.98 1007.12 1007.23 1007.29 1007.31 1007.28 1007.21 1007.12 1007.04 1006.97 1006.94 1006.94 1006.99 1007.08 1007.22 1007.40 1007.62 1007.88 1008.19 1008.54 1008.92 1009.32 1009.74 1010.15 1010.56 1010.95 1011.33 1011.69 1012.04 1012.38 1012.73 1013.08 1013.44 1013.82 1014.24 1014.68 1015.17 1015.68 1016.22 1016.76 1017.28 1017.76 1018.16 1018.46 1018.65
1005.22 1005.48 1005.74 1006.00 1006.25 1006.48 1006.66 1006.78 1006.84 1006.83 1006.77 1006.70 1006.62 1006.56 1006.52 1006.52 1006.54 1006.59 1006.66 1006.77 1006.91 1007.10 1007.34 1007.65 1008.02 1008.44 1008.89 1009.37 1009.84 1010.30 1010.73 1011.13 1011.50 1011.84 1012.17 1012.50 1012.86 1013.24 1013.66 1014.14 1014.65 1015.21 1015.79 1016.37 1016.93 1017.44 1017.87 1018.19 1018.41
1004.21 1004.54 1004.89 1005.23 1005.56 1005.84 1006.05 1006.18 1006.22 1006.19 1006.13 1006.04 1005.97 1005.92 1005.90 1005.90 1005.92 1005.95 1005.99 1006.04 1006.11 1006.24 1006.42 1006.70 1007.06 1007.50 1008.01 1008.56 1009.11 1009.65 1010.15 1010.60 1010.99 1011.35 1011.68 1012.01 1012.36 1012.74 1013.17 1013.65 1014.18 1014.75 1015.34 1015.93 1016.50 1017.03 1017.47 1017.83 1018.08
1003.38 1003.78 1004.20 1004.62 1004.98 1005.27 1005.45 1005.52 1005.50 1005.40 1005.26 1005.14 1005.05 1005.00 1005.01 1005.04 1005.09 1005.13 1005.17 1005.19 1005.24 1005.33 1005.49 1005.75 1006.12 1006.60 1007.17 1007.79 1008.42 1009.04 1009.61 1010.12 1010.55 1010.93 1011.28 1011.61 1011.96 1012.34 1012.76 1013.24 1013.76 1014.31 1014.89 1015.47 1016.03 1016.55 1017.02 1017.41 1017.72
1002.75 1003.24 1003.74 1004.20 1004.58 1004.82 1004.92 1004.88 1004.71 1004.48 1004.23 1004.03 1003.89 1003.84 1003.87 1003.95 1004.06 1004.16 1004.23 1004.29 1004.35 1004.45 1004.62 1004.89 1005.29 1005.81 1006.43 1007.12 1007.82 1008.51 1009.15 1009.70 1010.18 1010.59 1010.95 1011.30 1011.65 1012.03 1012.44 1012.90 1013.40 1013.92 1014.47 1015.01 1015.55 1016.06 1016.54 1016.98 1017.35
1002.34 1002.92 1003.49 1003.99 1004.34 1004.52 1004.49 1004.29 1003.94 1003.53 1003.13 1002.80 1002.60 1002.54 1002.59 1002.74 1002.93 1003.12 1003.29 1003.43 1003.56 1003.70 1003.92 1004.23 1004.66 1005.22 1005.89 1006.62 1007.37 1008.11 1008.78 1009.38 1009.89 1010.32 1010.70 1011.06 1011.42 1011.80 1012.20 1012.65 1013.11 1013.60 1014.10 1014.60 1015.10 1015.60 1016.09 1016.55 1016.99
1002.06 1002.74 1003.39 1003.91 1004.24 1004.33 1004.16 1003.77 1003.23 1002.62 1002.05 1001.60 1001.33 1001.24 1001.33 1001.55 1001.85 1002.17 1002.46 1002.72 1002.95 1003.19 1003.47 1003.83 1004.30 1004.89 1005.58 1006.33 1007.10 1007.85 1008.54 1009.15 1009.67 1010.12 1010.52 1010.89 1011.26 1011.64 1012.04 1012.47 1012.91 1013.36 1013.81 1014.26 1014.73 1015.20 1015.68 1016.17 1016.66
1001.84 1002.61 1003.32 1003.87 1004.17 1004.18 1003.88 1003.33 1002.61 1001.83 1001.11 1000.55 1000.22 1000.12 1000.26 1000.57 1000.99 1001.44 1001.88 1002.27 1002.63 1002.96 1003.32 1003.73 1004.24 1004.84 1005.53 1006.27 1007.03 1007.76 1008.44 1009.04 1009.55 1010.00 1010.41 1010.79 1011.17 1011.56 1011.97 1012.38 1012.80 1013.21 1013.62 1014.02 1014.44 1014.88 1015.34 1015.83 1016.35
1001.58 1002.42 1003.18 1003.75 1004.03 1003.97 1003.59 1002.92 1002.08 1001.18 1000.37 999.74 999.38 999.31 999.51 999.91 1000.45 1001.04 1001.62 1002.15 1002.63 1003.06 1003.48 1003.94 1004.46 1005.06 1005.72 1006.43 1007.15 1007.84 1008.48 1009.05 1009.55 1010.00 1010.40 1010.80 1011.19 1011.59 1012.00 1012.41 1012.80 1013.18 1013.55 1013.91 1014.27 1014.66 1015.09 1015.57 1016.07
1001.20 1002.08 1002.86 1003.43 1003.70 1003.62 1003.20 1002.49 1001.61 1000.68 999.85 999.23 998.90 998.88 999.15 999.66 1000.31 1001.02 1001.72 1002.36 1002.93 1003.44 1003.91 1004.39 1004.91 1005.48 1006.11 1006.77 1007.43 1008.07 1008.67 1009.21 1009.69 1010.12 1010.53 1010.93 1011.33 1011.74 1012.15 1012.55 1012.93 1013.29 1013.61 1013.93 1014.24 1014.58 1014.96 1015.39 1015.86
1000.68 1001.54 1002.30 1002.86 1003.13 1003.06 1002.66 1001.98 1001.14 1000.28 999.52 998.98 998.74 998.82 999.19 999.79 1000.54 1001.35 1002.13 1002.85 1003.48 1004.03 1004.53 1005.01 1005.52 1006.06 1006.64 1007.24 1007.86 1008.45 1009.01 1009.51 1009.98 1010.40 1010.81 1011.21 1011.62 1012.03 1012.44 1012.83 1013.20 1013.53 1013.82 1014.09 1014.36 1014.64 1014.96 1015.33 1015.74
1000.03 1000.80 1001.50 1002.02 1002.29 1002.25 1001.92 1001.35 1000.65 999.93 999.33 998.95 998.85 999.06 999.54 1000.24 1001.06 1001.93 1002.77 1003.52 1004.18 1004.74 1005.24 1005.71 1006.20 1006.71 1007.25 1007.82 1008.39 1008.96 1009.49 1009.98 1010.43 1010.85 1011.26 1011.66 1012.06 1012.47 1012.87 1013.25 1013.60 1013.90 1014.17 1014.41 1014.63 1014.87 1015.13 1015.43 1015.77
999.28 999.91 1000.50 1000.95 1001.21 1001.22 1001.00 1000.59 1000.08 999.59 999.21 999.04 999.13 999.49 1000.10 1000.88 1001.76 1002.66 1003.51 1004.27 1004.92 1005.48 1005.96 1006.42 1006.89 1007.38 1007.90 1008.45 1009.01 1009.57 1010.09 1010.58 1011.04 1011.46 1011.87 1012.26 1012.66 1013.05 1013.43 1013.79 1014.11 1014.40 1014.64 1014.86 1015.05 1015.25 1015.46 1015.71 1015.97
998.52 998.96 999.40 999.77 1000.00 1000.06 999.96 999.73 999.45 999.21 999.09 999.16 999.46 999.99 1000.71 1001.57 1002.50 1003.41 1004.26 1005.00 1005.63 1006.17 1006.65 1007.10 1007.55 1008.04 1008.57 1009.13 1009.70 1010.26 1010.81 1011.31 1011.77 1012.20 1012.60 1012.98 1013.36 1013.72 1014.07 1014.40 1014.70 1014.96 1015.19 1015.39 1015.57 1015.75 1015.94 1016.14 1016.35
Thickness
5690 5692 5691 5684 5669 5655 5661 5673 5680 5685 5689 5694 5695 5695 5693 5692 5691 5691 5697 5703 5705 5705 5705 5706 5706 5706 5706 5706 5707 5707 5707 5707 5707 5708 5708 5708 5708 5709 5709 5709 5709 5710 5710 5711 5711 5711 5710 5710 5710
5684 5684 5679 5668 5652 5646 5658 5671 5676 5683 5688 5689 5689 5689 5688 5687 5690 5691 5694 5698 5700 5700 5700 5701 5701 5701 5701 5701 5701 5701 5702 5702 5702 5703 5703 5703 5703 5704 5704 5704 5705 5705 5705 5705 5706 5706 5706 5706 5706
5677 5676 5663 5652 5645 5647 5663 5672 5675 5680 5683 5684 5681 5681 5683 5684 5686 5688 5691 5693 5694 5695 5695 5696 5696 5696 5696 5696 5696 5696 5696 5697 5697 5698 5698 5698 5698 5699 5699 5699 5699 5700 5700 5701 5701 5701 5701 5701 5701
5667 5659 5650 5642 5645 5653 5661 5668 5671 5673 5676 5677 5675 5673 5676 5680 5682 5684 5687 5688 5689 5689 5689 5690 5691 5690 5690 5690 5690 5690 5691 5691 5692 5692 5692 5693 5693 5693 5693 5693 5694 5694 5695 5695 5695 5695 5696 5695 5696
5654 5645 5638 5633 5642 5652 5657 5662 5665 5667 5668 5669 5668 5666 5669 5674 5678 5679 5680 5682 5682 5682 5683 5684 5684 5685 5684 5684 5684 5684 5685 5685 5686 5686 5686 5686 5687 5687 5687 5687 5688 5689 5689 5690 5690 5690 5690 5690 5690
5637 5631 5624 5628 5638 5648 5652 5656 5659 5659 5660 5661 5661 5660 5663 5667 5670 5671 5673 5674 5675 5676 5676 5676 5677 5678 5678 5678 5678 5678 5678 5678 5679 5679 5680 5680 5680 5680 5681 5681 5682 5683 5683 5684 5684 5684 5685 5685 5685
5627 5620 5620 5626 5631 5639 5648 5650 5651 5651 5653 5654 5656 5653 5657 5660 5662 5664 5665 5666 5667 5668 5668 5669 5670 5670 5670 5671 5671 5671 5671 5671 5672 5672 5673 5673 5673 5673 5674 5674 5675 5676 5677 5677 5678 5678 5678 5679 5679
5622 5614 5614 5616 5623 5633 5641 5643 5645 5646 5647 5650 5651 5648 5650 5654 5655 5656 5656 5657 5658 5659 5660 5661 5662 5663 5663 5663 5664 5664 5664 5664 5664 5664 5665 5665 5665 5665 5666 5667 5668 5669 5670 5670 5671 5671 5672 5672 5672
5618 5604 5605 5613 5618 5626 5632 5634 5636 5640 5639 5640 5642 5644 5648 5647 5646 5647 5646 5647 5648 5650 5651 5652 5654 5655 5655 5656 5655 5655 5656 5656 5656 5656 5657 5657 5658 5658 5658 5659 5660 5661 5662 5663 5663 5664 5664 5664 5664
5605 5597 5605 5613 5616 5619 5622 5624 5626 5629 5629 5630 5633 5635 5637 5637 5638 5638 5638 5638 5640 5641 5643 5644 5645 5646 5647 5647 5647 5647 5647 5648 5648 5648 5649 5649 5650 5650 5651 5651 5652 5653 5653 5654 5655 5655 5656 5656 5657
5598 5595 5601 5606 5609 5611 5612 5614 5617 5619 5619 5624 5626 5627 5627 5628 5628 5629 5631 5631 5632 5633 5635 5636 5637 5638 5639 5639 5639 5639 5639 5639 5640 5640 5641 5641 5642 5642 5643 5643 5643 5644 5645 5646 5647 5647 5647 5648 5649
5589 5592 5595 5597 5601 5602 5602 5603 5605 5608 5614 5618 5621 5621 5620 5619 5620 5621 5622 5622 5623 5624 5626 5627 5628 5629 5630 5631 5631 5630 5631 5631 5632 5632 5633 5633 5633 5634 5634 5635 5635 5635 5636 5637 5638 5638 5639 5640 5640
5582 5584 5587 5589 5590 5591 5592 5593 5595 5600 5604 5607 5609 5610 5611 5611 5611 5612 5613 5614 5614 5615 5616 5618 5620 5620 5621 5622 5622 5622 5622 5623 5623 5624 5625 5625 5626 5626 5626 5626 5626 5626 5627 5628 5629 5629 5630 5631 5631
5575 5575 5577 5579 5581 5583 5583 5585 5586 5593 5594 5595 5598 5598 5600 5601 5602 5602 5603 5604 5605 5606 5608 5608 5610 5612 5612 5612 5613 5613 5614 5614 5615 5615 5616 5617 5617 5617 5617 5617 5617 5617 5618 5618 5619 5620 5621 5622 5622
5568 5567 5569 5571 5573 5574 5575 5576 5580 5583 5583 5584 5586 5588 5590 5591 5592 5593 5594 5595 5596 5597 5598 5599 5600 5602 5603 5603 5604 5604 5605 5605 5605 5606 5607 5608 5608 5609 5609 5608 5608 5608 5608 5609 5609 5610 5611 5612 5613
5558 5555 5555 5564 5565 5566 5564 5567 5577 5573 5574 5575 5576 5577 5579 5581 5583 5584 5585 5586 5587 5588 5588 5589 5591 5592 5593 5593 5594 5594 5595 5596 5596 5597 5598 5598 5599 5599 5599 5599 5598 5598 5599 5599 5600 5600 5601 5601 5602
5542 5539 5544 5552 5556 5556 5555 5559 5568 5565 5566 5566 5567 5567 5569 5570 5572 5574 5575 5577 5577 5578 5578 5579 5580 5581 5582 5583 5583 5584 5585 5585 5586 5587 5588 5589 5589 5590 5589 5589 5588 5588 5588 5589 5590 5590 5589 5590 5592
5534 5531 5536 5539 5545 5545 5544 5550 5558 5557 5557 5556 5556 5557 5558 5560 5562 5564 5565 5566 5567 5568 5568 5570 5570 5571 5571 5571 5572 5573 5574 5575 5576 5577 5578 5579 5579 5579 5579 5578 5578 5578 5578 5578 5578 5578 5578 5579 5580
5531 5528 5527 5533 5536 5536 5537 5542 5550 5550 5548 5547 5547 5547 5548 5550 5553 5554 5555 5555 5556 5557 5557 5558 5559 5560 5561 5561 5561 5562 5563 5564 5566 5567 5568 5568 5569 5569 5569 5568 5567 5567 5567 5566 5566 5567 5567 5566 5568
5524 5521 5521 5525 5529 5529 5527 5534 5542 5542 5542 5543 5543 5541 5541 5540 5542 5543 5544 5544 5546 5546 5547 5548 5550 5550 5551 5552 5552 5553 5553 5554 5556 5556 5557 5558 5558 5559 5559 5558 5557 5556 5556 5555 5554 5555 5554 5554 5555
5518 5515 5515 5515 5517 5517 5516 5528 5534 5537 5536 5537 5536 5536 5534 5535 5533 5534 5534 5534 5535 5536 5537 5539 5540 5541 5542 5542 5542 5542 5542 5543 5544 5545 5545 5546 5547 5548 5547 5547 5547 5546 5545 5544 5544 5544 5544 5543 5543
5511 5512 5510 5507 5501 5497 5504 5506 5525 5525 5526 5529 5528 5525 5525 5525 5525 5524 5525 5525 5526 5527 5528 5530 5530 5531 5532 5532 5532 5533 5532 5533 5534 5534 5535 5535 5536 5536 5536 5536 5536 5536 5535 5534 5533 5533 5533 5533 5532
5502 5502 5498 5495 5489 5484 5488 5486 5513 5512 5517 5522 5520 5519 5518 5517 5516 5516 5516 5517 5517 5517 5518 5518 5520 5521 5521 5521 5522 5522 5522 5522 5522 5523 5523 5524 5525 5525 5525 5525 5524 5524 5524 5524 5523 5523 5523 5522 5523
5494 5490 5485 5475 5473 5477 5480 5479 5499 5500 5509 5513 5512 5511 5509 5508 5507 5507 5507 5508 5507 5507 5507 5507 5509 5510 5511 5511 5511 5512 5511 5511 5511 5511 5512 5512 5513 5513 5513 5514 5513 5513 5513 5513 5513 5513 5512 5512 5512
5486 5478 5466 5465 5457 5471 5472 5473 5491 5502 5501 5501 5502 5501 5500 5498 5496 5497 5498 5498 5498 5498 5498 5498 5499 5500 5501 5501 5501 5501 5501 5501 5501 5500 5501 5500 5501 5501 5502 5503 5502 5502 5502 5502 5502 5502 5502 5502 5503
5474 5473 5463 5460 5454 5462 5462 5466 5491 5496 5495 5493 5492 5491 5490 5488 5487 5488 5489 5490 5489 5489 5489 5490 5490 5490 5490 5491 5491 5491 5491 5490 5490 5490 5490 5489 5490 5491 5491 5491 5491 5491 5491 5491 5492 5492 5492 5493 5493
5467 5459 5458 5444 5437 5441 5457 5464 5482 5491 5489 5487 5485 5483 5481 5480 5479 5479 5480 5480 5481 5480 5480 5480 5481 5481 5481 5481 5480 5481 5481 5480 5480 5479 5479 5479 5479 5479 5479 5480 5480 5481 5481 5481 5481 5482 5482 5483 5483
5463 5452 5440 5439 5444 5449 5458 5459 5472 5485 5484 5481 5477 5474 5473 5472 5471 5470 5470 5471 5471 5472 5472 5471 5472 5472 5471 5471 5470 5471 5471 5470 5470 5469 5468 5468 5468 5468 5468 5468 5469 5469 5469 5470 5470 5472 5472 5473 5474
5450 5444 5438 5429 5430 5436 5442 5466 5476 5475 5475 5472 5469 5468 5465 5463 5463 5462 5462 5462 5462 5462 5463 5463 5462 5462 5462 5461 5461 5461 5460 5460 5460 5459 5459 5458 5458 5457 5457 5458 5458 5459 5459 5460 5460 5461 5462 5464 5465
5447 5441 5432 5431 5427 5417 5423 5455 5474 5467 5466 5464 5463 5461 5459 5457 5455 5454 5453 5453 5453 5453 5454 5453 5453 5453 5453 5452 5451 5451 5451 5450 5450 5449 5449 5448 5447 5447 5447 5448 5449 5450 5450 5450 5450 5451 5453 5454 5456